[TLELIST] Archives

 

[list_settings.list_name] Current TLEs

June 7th 2011 PST

HST 1 20580U 90037B 11157.14990257 .00000902 00000-0 55628-4 0 7771 2 20580 028.4697 088.5490 0002988 003.7142 356.3507 15.01378988957999 ISS (ZARYA) 1 25544U 98067A 11158.37261318 .00025337 00000-0 17500-3 0 4886 2 25544 051.6450 210.9187 0001170 310.0317 162.2686 15.74386581719360 CXO 1 25867U 99040B 11158.37500000 -.00000265 00000-0 00000+0 0 6137 2 25867 069.2988 032.2906 8604845 276.6401 354.5661 00.37805609 7730 ____________________________________________________________________ These 2-Line ...Continue Reading

[list_settings.list_name] Current TLEs

June 6th 2011 PST

HST 1 20580U 90037B 11157.14990257 .00000902 00000-0 55628-4 0 7771 2 20580 028.4697 088.5490 0002988 003.7142 356.3507 15.01378988957999 ISS (ZARYA) 1 25544U 98067A 11157.49921296 .00022046 00000-0 15324-3 0 4837 2 25544 051.6467 215.4081 0001050 297.7871 260.9818 15.74332863719226 CXO 1 25867U 99040B 11158.37500000 -.00000265 00000-0 00000+0 0 6137 2 25867 069.2988 032.2906 8604845 276.6401 354.5661 00.37805609 7730 ____________________________________________________________________ These 2-Line ...Continue Reading

[list_settings.list_name] Current TLEs

June 5th 2011 PST

HST 1 20580U 90037B 11154.22501191 .00000918 00000-0 56791-4 0 7760 2 20580 028.4691 107.6555 0003127 330.3636 029.6819 15.01374647957557 ISS (ZARYA) 1 25544U 98067A 11156.48190972 .00016708 00000-0 11753-3 0 4777 2 25544 051.6451 220.6338 0001013 294.3176 254.9676 15.74276158719063 CXO 1 25867U 99040B 11155.75000000 -.00000311 00000-0 00000+0 0 6122 2 25867 069.2736 032.5354 8603250 276.6063 357.1595 00.37805320 7728 ____________________________________________________________________ These 2-Line ...Continue Reading

[list_settings.list_name] Current TLEs

June 4th 2011 PST

HST 1 20580U 90037B 11154.22501191 .00000918 00000-0 56791-4 0 7760 2 20580 028.4691 107.6555 0003127 330.3636 029.6819 15.01374647957557 ISS (ZARYA) 1 25544U 98067A 11155.38603943 .00018499 00000-0 12985-3 0 4702 2 25544 051.6466 226.2652 0001319 282.8514 171.5909 15.74236464718896 CXO 1 25867U 99040B 11155.75000000 -.00000311 00000-0 00000+0 0 6122 2 25867 069.2736 032.5354 8603250 276.6063 357.1595 00.37805320 7728 ____________________________________________________________________ These 2-Line ...Continue Reading

[list_settings.list_name] Current TLEs

June 3rd 2011 PST

HST 1 20580U 90037B 11154.22501191 .00000918 00000-0 56791-4 0 7760 2 20580 028.4691 107.6555 0003127 330.3636 029.6819 15.01374647957557 ISS (ZARYA) 1 25544U 98067A 11154.36963098 .00032379 00000-0 22433-3 0 4633 2 25544 051.6426 231.4798 0001301 266.4613 183.9191 15.74171783718735 CXO 1 25867U 99040B 11155.75000000 -.00000311 00000-0 00000+0 0 6122 2 25867 069.2736 032.5354 8603250 276.6063 357.1595 00.37805320 7728 ____________________________________________________________________ These 2-Line ...Continue Reading

[list_settings.list_name] Current TLEs

June 2nd 2011 PST

HST 1 20580U 90037B 11153.22788893 .00000872 00000-0 53324-4 0 7752 2 20580 028.4690 114.1708 0003121 319.1299 040.9114 15.01372893957402 ISS (ZARYA) 1 25544U 98067A 11153.46542938 .00027139 00000-0 17281-3 0 4597 2 25544 051.6472 236.1315 0005334 000.2604 359.8924 15.75687183122753 CXO 1 25867U 99040B 11153.12500000 -.00000362 00000-0 00000+0 0 6111 2 25867 069.2611 032.7483 8599384 276.5938 359.7506 00.37799731 7714 ____________________________________________________________________ These 2-Line ...Continue Reading

[list_settings.list_name] Current TLEs

June 1st 2011 PST

HST 1 20580U 90037B 11152.23076219 .00000817 00000-0 49136-4 0 7748 2 20580 028.4692 120.6850 0003093 308.8152 051.2073 15.01371121957250 ISS (ZARYA) 1 25544U 98067A 11152.39526740 -.00001699 00000-0 -66982-5 0 4523 2 25544 051.6480 241.6405 0005421 356.5556 049.1353 15.75602648718426 CXO 1 25867U 99040B 11153.12500000 -.00000362 00000-0 00000+0 0 6111 2 25867 069.2611 032.7483 8599384 276.5938 359.7506 00.37799731 7714 ____________________________________________________________________ These 2-Line ...Continue Reading

[list_settings.list_name] Current TLEs

May 31st 2011 PST

HST 1 20580U 90037B 11151.16716261 .00000940 00000-0 58458-4 0 7730 2 20580 028.4690 127.6249 0003108 295.1545 064.8771 15.01370135957099 ISS (ZARYA) 1 25544U 98067A 11151.38748039 -.00017961 00000-0 -11138-3 0 4450 2 25544 051.6501 246.8303 0004793 357.6206 087.8829 15.75546741718269 CXO 1 25867U 99040B 11153.12500000 -.00000362 00000-0 00000+0 0 6111 2 25867 069.2611 032.7483 8599384 276.5938 359.7506 00.37799731 7714 ____________________________________________________________________ These 2-Line ...Continue Reading

[list_settings.list_name] Current TLEs

May 30th 2011 PST

HST 1 20580U 90037B 11150.23651044 .00000919 00000-0 56931-4 0 7723 2 20580 028.4692 133.7068 0003168 285.6423 074.3770 15.01368519956955 ISS (ZARYA) 1 25544U 98067A 11150.43845483 .00033403 00000-0 21839-3 0 4395 2 25544 051.6416 251.7030 0004486 345.5745 113.4566 15.75487453718111 CXO 1 25867U 99040B 11150.45833333 -.00000322 00000-0 00000+0 0 6107 2 25867 069.2489 032.9120 8598306 276.6072 356.6462 00.37802670 7703 ____________________________________________________________________ These 2-Line ...Continue Reading

[list_settings.list_name] Current TLEs

May 29th 2011 PST

HST 1 20580U 90037B 11149.23938621 .00001488 00000-0 10000-3 0 7717 2 20580 028.4688 140.2227 0003270 270.8930 089.1399 15.01367570956804 ISS (ZARYA) 1 25544U 98067A 11149.16515108 .00029872 00000-0 19379-3 0 4336 2 25544 051.6510 258.2621 0004227 337.1722 095.3654 15.75729471717911 CXO 1 25867U 99040B 11150.45833333 -.00000322 00000-0 00000+0 0 6107 2 25867 069.2489 032.9120 8598306 276.6072 356.6462 00.37802670 7703 ____________________________________________________________________ These 2-Line ...Continue Reading
  • This mailing list is a public mailing list - anyone may join or leave, at any time.
  • This mailing list is announce-only.

International Space Station (ISS) / Hubble Space Telescope (HST) / Chandra X-Ray Observatory Orbital Data via EMAIL

Privacy Policy:

Private list